Вернуться в каталог

STARLINK-37242

АктивенСвязьSSO
NORAD 68728·PAYLOAD·🇺🇸 United States

Запущен Apr 15, 2026 с Vandenberg Space Force Base

Loading…

Ближайшие Пролёты (ближайшие 24 часа)

TLE

СвежийSource: CelesTrak SupGP

Эпоха: Sep 15, 2026, 03:26 UTC

1 68728C 26082A   26258.14354167 -.00002963  00000+0 -91964-4 0  2585
2 68728  97.2847 120.3611 0002163  92.5497 282.4579 15.33445173    16

Отслеживайте STARLINK-37242 в реальном времени с AllMySat

Download on the App Store